This is the latest recevied weather packets stored in our database for station/object NZ3C. If no packets are shown the sender has not sent any weather packets the latest 10 day(s).
| Time | Temp. | Humidity | Pressure | Rain* | Wind** | Luminosity | Snow |
|---|---|---|---|---|---|---|---|
| 1777827867 | 17.78° C | 36% | 1019.8 hPa | 0 mm | - | 893 W/m² | - |
| 1777827564 | 17.22° C | 42% | 1019.9 hPa | 0 mm | - | 891 W/m² | - |
| 1777827262 | 16.67° C | 40% | 1019.9 hPa | 0 mm | - | 888 W/m² | - |
| 1777826957 | 16.67° C | 43% | 1020.1 hPa | 0 mm | - | 887 W/m² | - |
| 1777826655 | 17.22° C | 38% | 1020.1 hPa | 0 mm | - | 884 W/m² | - |
| 1777826351 | 17.22° C | 39% | 1020.2 hPa | 0 mm | - | 880 W/m² | - |
| 1777826049 | 16.67° C | 40% | 1020 hPa | 0 mm | - | 876 W/m² | - |
| 1777825746 | 16.67° C | 43% | 1020 hPa | 0 mm | - | 876 W/m² | - |
| 1777825444 | 16.11° C | 41% | 1020.2 hPa | 0 mm | - | 870 W/m² | - |
| 1777825140 | 15.56° C | 42% | 1020.3 hPa | 0 mm | - | 867 W/m² | - |
| 1777824836 | 16.11° C | 40% | 1020.4 hPa | 0 mm | - | 862 W/m² | - |
| 1777824533 | 16.11° C | 43% | 1020.4 hPa | 0 mm | - | 862 W/m² | - |
| 1777824230 | 16.67° C | 45% | 1020.5 hPa | 0 mm | - | 860 W/m² | - |
| 1777823925 | 16.11° C | 46% | 1020.6 hPa | 0 mm | - | 850 W/m² | - |
| 1777823623 | 16.11° C | 46% | 1020.7 hPa | 0 mm | - | 847 W/m² | - |
| 1777823320 | 15.56° C | 43% | 1020.8 hPa | 0 mm | - | 840 W/m² | - |
| 1777823017 | 15.56° C | 42% | 1020.6 hPa | 0 mm | - | 834 W/m² | - |
| 1777822715 | 16.11° C | 41% | 1020.2 hPa | 0 mm | - | 824 W/m² | - |
| 1777822413 | 16.11° C | 40% | 1020.4 hPa | 0 mm | - | 820 W/m² | - |
| 1777822110 | 16.11° C | 45% | 1020.5 hPa | 0 mm | - | 810 W/m² | - |
| 1777821808 | 15.56° C | 46% | 1020.4 hPa | 0 mm | - | 801 W/m² | - |
| 1777821505 | 15.56° C | 40% | 1020.5 hPa | 0 mm | - | 792 W/m² | - |
| 1777821203 | 15.56° C | 47% | 1020.6 hPa | 0 mm | - | 781 W/m² | - |
| 1777820899 | 15.56° C | 43% | 1020.4 hPa | 0 mm | - | 772 W/m² | - |
| 1777820595 | 15° C | 45% | 1020.6 hPa | 0 mm | - | 761 W/m² | - |
* Rain latest hour (hover to see other rain measurements)
** Current wind speed in m/s (hover to see current wind gust speed)